GW0360 Weather Reports


Display with metric or nautical units.
time (UTC)temp
F
wind
direction
speed
MPH
gust
MPH
rain 1hr
in
rain 24hr
in
rain mn
in
humidity
%
barometer
mb
20260507000545 59 0 0.0 4.0 0.00 0.03 0.01 35 1017.6
20260507000052 59 0 0.0 4.0 0.00 0.03 0.01 35 1017.5
20260506235544 59 0 0.0 4.0 0.00 0.03 0.01 38 1017.5
20260506235044 59 0 0.0 4.0 0.00 0.03 0.01 36 1017.6
20260506234554 59 0 0.0 5.0 0.00 0.03 0.01 35 1017.7
20260506234048 60 0 0.0 5.0 0.00 0.03 0.01 36 1017.7
20260506233544 60 0 1.0 5.0 0.00 0.03 0.01 36 1017.8
20260506233102 60 321 0.0 5.0 0.00 0.03 0.01 38 1017.7
20260506232544 60 0 0.0 4.0 0.00 0.03 0.01 34 1017.7
20260506232044 60 343 0.0 5.0 0.00 0.03 0.01 35 1017.9
20260506231552 60 0 0.0 5.0 0.00 0.03 0.01 38 1017.8
20260506231044 60 157 0.0 3.0 0.00 0.03 0.01 35 1017.7
20260506230544 60 0 0.0 3.0 0.00 0.03 0.01 34 1017.8
20260506230056 60 0 0.0 4.0 0.00 0.03 0.01 35 1017.9
20260506225544 60 0 0.0 4.0 0.00 0.03 0.01 35 1017.9
20260506225041 60 0 0.0 3.0 0.00 0.03 0.01 35 1017.9
20260506224554 59 0 0.0 5.0 0.00 0.03 0.01 35 1017.9
20260506224043 60 40 1.0 5.0 0.00 0.03 0.01 32 1017.9
20260506223547 61 317 1.0 6.0 0.00 0.03 0.01 34 1017.8
20260506223113 61 355 0.0 6.0 0.00 0.03 0.01 34 1017.9
20260506222544 61 304 1.0 4.0 0.00 0.03 0.01 34 1017.8
20260506222044 61 319 1.0 4.0 0.00 0.03 0.01 34 1017.8
20260506221602 61 0 0.0 4.0 0.00 0.03 0.01 34 1017.9
20260506221044 61 0 0.0 6.0 0.00 0.03 0.01 34 1017.9
20260506220544 61 19 1.0 6.0 0.00 0.03 0.01 35 1017.9
20260506220056 61 350 0.0 3.0 0.00 0.03 0.01 34 1018.0
20260506215544 61 0 0.0 3.0 0.00 0.03 0.01 33 1018.0
20260506215043 62 355 0.0 3.0 0.00 0.03 0.01 35 1018.1
20260506214604 61 0 0.0 2.0 0.00 0.03 0.01 34 1018.0
20260506214045 61 0 0.0 3.0 0.00 0.03 0.01 33 1018.1
20260506213545 61 0 0.0 5.0 0.00 0.03 0.01 34 1018.2
20260506213054 61 36 0.0 5.0 0.00 0.03 0.01 35 1018.2
20260506212541 61 11 0.0 6.0 0.00 0.03 0.01 36 1018.2
20260506212044 62 0 0.0 6.0 0.00 0.03 0.01 32 1018.4
20260506211556 62 349 1.0 6.0 0.00 0.03 0.01 35 1018.4
20260506211041 62 24 0.0 4.0 0.00 0.03 0.01 34 1018.5
20260506210544 63 314 0.0 4.0 0.00 0.03 0.01 34 1018.6
20260506210052 62 313 0.0 8.0 0.00 0.03 0.01 33 1018.7
20260506205544 63 0 2.0 8.0 0.00 0.03 0.01 34 1018.8
20260506205044 61 38 1.0 5.0 0.00 0.03 0.01 34 1018.8
20260506204555 61 137 0.0 6.0 0.00 0.03 0.01 35 1018.9
20260506204043 61 0 0.0 6.0 0.00 0.03 0.01 36 1019.0
20260506203543 62 48 1.0 6.0 0.00 0.03 0.01 31 1019.1
20260506203100 62 0 2.0 7.0 0.00 0.03 0.01 36 1019.2
20260506202546 62 0 1.0 7.0 0.00 0.03 0.01 31 1019.1
20260506202044 62 0 0.0 3.0 0.00 0.03 0.01 39 1019.4
20260506201552 61 350 1.0 6.0 0.00 0.03 0.01 37 1019.3
20260506201047 61 0 0.0 9.0 0.00 0.03 0.01 32 1019.4
20260506200543 63 288 2.0 9.0 0.00 0.03 0.01 33 1019.6
20260506200135 62 275 1.0 11.0 0.00 0.03 0.01 34 1019.7
20260506195543 62 340 1.0 11.0 0.00 0.03 0.01 35 1019.8
20260506195046 61 0 2.0 11.0 0.00 0.03 0.01 34 1019.6
20260506194550 62 347 0.0 8.0 0.00 0.03 0.01 36 1019.7
20260506194043 62 325 2.0 8.0 0.00 0.03 0.01 36 1019.5
20260506193546 61 24 0.0 4.0 0.00 0.03 0.01 36 1019.6
20260506193051 59 0 1.0 6.0 0.00 0.03 0.01 34 1019.6
20260506192543 60 58 1.0 7.0 0.00 0.03 0.01 34 1019.7
20260506192043 61 0 1.0 7.0 0.00 0.03 0.01 35 1019.5
20260506191552 60 20 1.0 4.0 0.00 0.03 0.01 39 1019.5
20260506191044 61 0 1.0 6.0 0.00 0.03 0.01 35 1019.4
20260506190546 61 27 1.0 6.0 0.00 0.03 0.01 37 1019.6
20260506190055 58 0 2.0 5.0 0.00 0.03 0.01 35 1019.6
20260506185548 60 39 0.0 4.0 0.00 0.03 0.01 39 1019.7
20260506185044 59 0 0.0 5.0 0.00 0.03 0.01 39 1019.7
20260506184553 59 13 1.0 6.0 0.00 0.03 0.01 34 1019.8
20260506184044 59 19 1.0 6.0 0.00 0.03 0.01 35 1019.8
20260506183544 60 42 0.0 6.0 0.00 0.03 0.01 34 1019.8
20260506183055 59 0 1.0 8.0 0.00 0.03 0.01 33 1019.8
20260506182544 59 72 1.0 8.0 0.00 0.03 0.01 34 1019.9
20260506182044 60 338 0.0 8.0 0.00 0.03 0.01 35 1019.8
20260506181554 59 244 1.0 8.0 0.00 0.03 0.01 33 1019.9
20260506181044 59 331 2.0 8.0 0.00 0.03 0.01 37 1019.8
20260506180545 60 35 0.0 7.0 0.00 0.03 0.01 39 1020.0
20260506175546 59 173 0.0 4.0 0.00 0.03 0.01 39 1020.0
20260506175044 58 71 0.0 9.0 0.00 0.03 0.01 38 1020.0
20260506174549 57 0 0.0 9.0 0.00 0.03 0.01 36 1020.1
20260506174047 59 352 2.0 8.0 0.00 0.03 0.01 36 1020.1
20260506173544 58 0 0.0 5.0 0.00 0.03 0.01 36 1020.2
20260506173106 58 40 1.0 5.0 0.00 0.03 0.01 36 1020.1
20260506172546 58 338 0.0 5.0 0.00 0.03 0.01 39 1020.1
20260506172044 57 0 1.0 4.0 0.00 0.03 0.01 38 1020.2
20260506171558 56 51 1.0 4.0 0.00 0.03 0.01 39 1020.3
20260506171044 56 29 0.0 4.0 0.00 0.03 0.01 40 1020.4
20260506170543 56 5 1.0 4.0 0.00 0.03 0.01 41 1020.3
20260506170052 56 0 0.0 5.0 0.00 0.03 0.01 42 1020.4
20260506165544 55 0 0.0 5.0 0.00 0.04 0.01 40 1020.3
20260506165044 54 60 1.0 3.0 0.00 0.04 0.01 39 1020.4
20260506164558 54 350 0.0 3.0 0.00 0.04 0.01 43 1020.3
20260506164043 54 46 0.0 4.0 0.00 0.04 0.01 43 1020.5
20260506163543 54 306 0.0 5.0 0.00 0.04 0.01 43 1020.5
20260506163106 54 40 1.0 5.0 0.00 0.04 0.01 43 1020.4
20260506162544 55 0 0.0 4.0 0.00 0.04 0.01 45 1020.4
20260506162045 55 0 0.0 4.0 0.00 0.04 0.01 46 1020.4
20260506161559 55 0 0.0 7.0 0.00 0.04 0.01 45 1020.4
20260506161043 55 325 1.0 7.0 0.00 0.04 0.01 46 1020.4
20260506160545 55 326 1.0 5.0 0.00 0.04 0.01 45 1020.3
20260506160104 55 0 0.0 4.0 0.00 0.04 0.01 50 1020.2
20260506155551 54 49 0.0 4.0 0.00 0.05 0.01 49 1020.1
20260506155043 54 0 0.0 4.0 0.00 0.05 0.01 50 1020.1
20260506154552 54 0 0.0 7.0 0.00 0.05 0.01 53 1020.2
20260506154044 54 348 0.0 7.0 0.00 0.05 0.01 50 1020.2
20260506153545 55 302 1.0 5.0 0.00 0.05 0.01 52 1020.2
20260506153048 54 0 1.0 9.0 0.00 0.05 0.01 54 1020.1
20260506152543 54 318 1.0 9.0 0.00 0.05 0.01 55 1020.1
20260506152043 54 325 0.0 4.0 0.00 0.05 0.01 53 1020.1
20260506151554 56 74 1.0 3.0 0.00 0.05 0.01 54 1019.9
20260506151043 55 348 0.0 2.0 0.00 0.05 0.01 56 1019.8
20260506150541 54 0 0.0 3.0 0.00 0.05 0.01 58 1019.8
20260506150048 54 0 0.0 5.0 0.00 0.05 0.01 56 1019.8
20260506145541 54 0 0.0 6.0 0.00 0.06 0.01 53 1019.8
20260506145043 53 0 1.0 6.0 0.00 0.06 0.01 62 1019.9
20260506144553 52 318 2.0 6.0 0.00 0.06 0.01 57 1019.9
20260506144043 52 0 1.0 6.0 0.00 0.06 0.01 62 1019.8
20260506143544 51 308 3.0 6.0 0.00 0.06 0.01 64 1019.9
20260506143054 51 220 2.0 7.0 0.00 0.06 0.01 65 1019.8
20260506142543 51 288 1.0 7.0 0.00 0.06 0.01 65 1019.8
20260506142040 51 304 0.0 4.0 0.00 0.06 0.01 70 1019.8
20260506141546 50 0 0.0 4.0 0.00 0.06 0.01 69 1019.8
20260506141040 50 0 0.0 4.0 0.00 0.06 0.01 71 1019.7
20260506140543 49 276 0.0 6.0 0.00 0.06 0.01 74 1019.9
20260506140048 49 0 1.0 6.0 0.00 0.06 0.01 72 1019.8
20260506135543 49 0 0.0 4.0 0.00 0.12 0.01 73 1019.8
20260506135040 48 0 1.0 4.0 0.00 0.12 0.01 74 1019.7
20260506134614 48 0 1.0 6.0 0.00 0.12 0.01 76 1019.5
20260506134046 48 0 0.0 6.0 0.00 0.12 0.01 78 1019.5
20260506133541 47 292 0.0 3.0 0.00 0.12 0.01 79 1019.4
20260506133051 47 0 0.0 4.0 0.00 0.12 0.01 80 1019.3
20260506132543 47 279 0.0 4.0 0.00 0.12 0.01 80 1019.4
20260506132042 46 309 0.0 4.0 0.00 0.12 0.01 79 1019.2
20260506131607 46 0 0.0 3.0 0.00 0.12 0.01 79 1019.1
20260506131043 46 0 0.0 3.0 0.00 0.12 0.01 79 1019.1
20260506130544 46 280 0.0 3.0 0.00 0.12 0.01 79 1018.8
20260506130053 46 0 0.0 3.0 0.00 0.12 0.01 79 1019.0
20260506125543 46 313 0.0 2.0 0.00 0.25 0.01 80 1019.0
20260506125043 46 0 0.0 0.0 0.00 0.25 0.01 80 1018.6
20260506124552 46 0 0.0 1.0 0.00 0.25 0.01 81 1018.5
20260506124041 46 0 0.0 1.0 0.00 0.25 0.01 82 1018.4
20260506123544 45 0 0.0 1.0 0.01 0.25 0.01 82 1018.3
20260506123050 45 0 0.0 1.0 0.01 0.25 0.01 82 1018.2
20260506122541 45 0 0.0 1.0 0.01 0.25 0.01 83 1018.2
20260506122040 44 0 0.0 2.0 0.01 0.25 0.01 83 1018.0
20260506121549 44 0 0.0 2.0 0.01 0.25 0.01 83 1017.9
20260506121044 44 289 0.0 1.0 0.01 0.25 0.01 83 1017.9
20260506120545 44 292 0.0 1.0 0.01 0.25 0.01 84 1017.8
20260506120059 44 0 0.0 1.0 0.01 0.25 0.01 84 1017.5
20260506115544 44 0 0.0 2.0 0.01 0.27 0.01 85 1017.5
20260506115044 43 0 0.0 2.0 0.01 0.27 0.01 85 1017.4
20260506114553 43 320 0.0 1.0 0.01 0.27 0.01 85 1017.4
20260506114043 43 0 0.0 1.0 0.01 0.27 0.01 85 1017.3
20260506113543 43 0 0.0 1.0 0.00 0.26 0.00 85 1017.2
20260506113051 43 0 0.0 0.0 0.00 0.26 0.00 84 1017.0
20260506112542 43 0 0.0 0.0 0.00 0.26 0.00 84 1016.8
20260506112045 43 0 0.0 0.0 0.00 0.26 0.00 84 1016.8
20260506111608 43 0 0.0 0.0 0.00 0.26 0.00 83 1016.9
20260506111041 43 0 0.0 0.0 0.00 0.26 0.00 82 1017.0
20260506110541 43 0 0.0 0.0 0.00 0.26 0.00 81 1016.8
20260506110053 44 0 0.0 0.0 0.00 0.26 0.00 80 1016.9
20260506105541 44 0 0.0 0.0 0.00 0.29 0.00 79 1017.0
20260506105040 44 0 0.0 0.0 0.00 0.29 0.00 77 1017.0
20260506104554 45 0 0.0 0.0 0.00 0.29 0.00 76 1017.1
20260506104043 45 0 0.0 0.0 0.00 0.29 0.00 76 1017.4
20260506103540 45 0 0.0 1.0 0.00 0.29 0.00 75 1017.4
20260506103049 46 0 0.0 3.0 0.00 0.29 0.00 74 1017.5
20260506102545 46 0 0.0 3.0 0.00 0.29 0.00 74 1017.6
20260506102046 46 0 0.0 3.0 0.00 0.29 0.00 77 1017.8
20260506101554 46 0 0.0 3.0 0.00 0.29 0.00 79 1017.9
20260506101041 46 346 0.0 1.0 0.00 0.29 0.00 83 1017.9
20260506100544 46 0 0.0 4.0 0.00 0.29 0.00 83 1017.9
20260506100054 46 0 0.0 4.0 0.00 0.29 0.00 84 1018.0
20260506095544 46 0 0.0 4.0 0.00 0.29 0.00 86 1018.1
20260506095047 46 0 0.0 4.0 0.00 0.29 0.00 86 1018.0
20260506094553 46 0 0.0 4.0 0.00 0.29 0.00 86 1017.6
20260506094040 45 270 0.0 3.0 0.00 0.29 0.00 87 1017.8
20260506093542 45 285 1.0 4.0 0.00 0.29 0.00 87 1017.7
20260506093055 45 0 0.0 4.0 0.00 0.29 0.00 87 1017.5
20260506092541 45 0 1.0 4.0 0.00 0.29 0.00 88 1017.5
20260506092044 45 310 0.0 4.0 0.00 0.29 0.00 87 1017.2
20260506091549 45 319 0.0 3.0 0.00 0.29 0.00 88 1017.0
20260506091041 45 0 0.0 3.0 0.00 0.29 0.00 88 1016.7
20260506090546 45 286 0.0 2.0 0.00 0.29 0.00 87 1016.4
20260506090053 45 0 0.0 1.0 0.00 0.29 0.00 87 1016.2
20260506085543 45 0 0.0 3.0 0.00 0.29 0.00 87 1016.1
20260506085043 45 0 0.0 3.0 0.00 0.29 0.00 87 1016.4
20260506084559 45 0 0.0 2.0 0.00 0.29 0.00 87 1016.4
20260506084043 45 265 0.0 1.0 0.00 0.29 0.00 87 1016.5
20260506083539 45 290 0.0 1.0 0.00 0.29 0.00 86 1016.4
20260506083109 45 0 0.0 1.0 0.00 0.29 0.00 86 1016.3
20260506082540 45 0 0.0 1.0 0.00 0.29 0.00 86 1016.2
20260506082040 45 0 0.0 1.0 0.00 0.29 0.00 86 1016.4
20260506081554 45 0 0.0 1.0 0.00 0.29 0.00 86 1016.4
20260506081041 45 0 0.0 1.0 0.00 0.29 0.00 86 1016.5
20260506080543 45 221 0.0 0.0 0.00 0.29 0.00 86 1016.5
20260506073049 45 0 0.0 0.0 0.00 0.29 0.00 85 1015.8
20260506072541 45 0 0.0 0.0 0.00 0.29 0.00 85 1015.7
20260506072041 45 0 0.0 0.0 0.00 0.29 0.00 85 1015.8
20260506071555 45 0 0.0 0.0 0.00 0.29 0.00 85 1015.7
20260506071040 45 0 0.0 0.0 0.00 0.29 0.00 86 1015.5
20260506070540 45 0 0.0 0.0 0.00 0.29 0.00 86 1015.6
20260506062045 46 0 0.0 2.0 0.00 0.34 0.00 84 1014.8
20260506061554 46 0 0.0 2.0 0.00 0.34 0.00 85 1014.8
20260506061044 46 0 0.0 0.0 0.00 0.34 0.00 85 1015.0
20260506060544 46 0 0.0 0.0 0.00 0.34 0.00 85 1015.3
20260506051043 46 0 0.0 2.0 0.01 0.34 0.00 82 1016.0
20260506050543 46 0 0.0 2.0 0.01 0.34 0.00 82 1016.0
20260506050105 46 0 0.0 2.0 0.01 0.34 0.00 82 1015.9
20260506045044 46 0 0.0 3.0 0.02 0.34 0.34 81 1016.0
20260506044557 46 0 0.0 3.0 0.02 0.34 0.34 80 1016.1
20260506044041 46 0 0.0 1.0 0.02 0.34 0.34 80 1016.2
20260506043545 46 0 0.0 1.0 0.02 0.34 0.34 79 1016.3
20260506043049 47 0 0.0 3.0 0.02 0.34 0.34 78 1016.4
20260506042541 47 0 0.0 3.0 0.02 0.34 0.34 77 1016.3
20260506042040 47 291 0.0 3.0 0.01 0.33 0.33 76 1016.3
20260506041602 47 302 0.0 5.0 0.01 0.33 0.33 75 1016.4
20260506041040 48 0 0.0 9.0 0.01 0.33 0.33 73 1016.4
20260506040540 48 296 0.0 9.0 0.01 0.33 0.33 70 1016.3
20260506040054 49 297 1.0 9.0 0.01 0.33 0.33 69 1016.2
20260506035542 50 315 1.0 6.0 0.00 0.32 0.32 66 1016.1
20260506035044 50 327 1.0 5.0 0.00 0.32 0.32 65 1016.1
20260506034557 50 0 0.0 3.0 0.00 0.32 0.32 64 1015.9
20260506034043 50 0 0.0 2.0 0.00 0.32 0.32 67 1015.9
20260506033543 50 0 0.0 4.0 0.00 0.32 0.32 66 1015.9
20260506033051 51 0 0.0 7.0 0.00 0.32 0.32 63 1015.8
20260506032541 51 5 2.0 7.0 0.00 0.32 0.32 61 1015.7
20260506032040 51 5 1.0 4.0 0.00 0.32 0.32 63 1015.7
20260506031548 51 0 0.0 1.0 0.00 0.32 0.32 68 1015.2
20260506031041 51 0 0.0 2.0 0.00 0.32 0.32 66 1015.1
20260506030541 52 0 0.0 2.0 0.00 0.32 0.32 64 1014.9
20260506030049 52 0 0.0 1.0 0.00 0.32 0.32 61 1015.0
20260506025540 51 0 0.0 1.0 0.00 0.32 0.32 62 1014.7
20260506025041 52 0 0.0 3.0 0.00 0.32 0.32 62 1014.3
20260506024557 52 0 0.0 3.0 0.00 0.32 0.32 61 1014.2
20260506024041 52 0 0.0 3.0 0.00 0.32 0.32 61 1014.3
20260506023545 52 0 0.0 4.0 0.00 0.32 0.32 62 1014.0
20260506023047 52 0 0.0 4.0 0.00 0.32 0.32 63 1013.8
20260506022543 51 29 0.0 4.0 0.00 0.32 0.32 63 1013.8
20260506022043 52 0 0.0 2.0 0.00 0.32 0.32 63 1013.9
20260506021549 52 0 0.0 2.0 0.00 0.32 0.32 63 1013.7
20260506021044 52 0 0.0 2.0 0.00 0.32 0.32 62 1013.5
20260506020540 52 0 0.0 2.0 0.00 0.32 0.32 62 1013.5
20260506020104 52 0 0.0 2.0 0.00 0.32 0.32 63 1013.5
20260506015543 52 0 0.0 3.0 0.00 0.32 0.32 63 1013.4
20260506015041 52 0 0.0 3.0 0.00 0.32 0.32 63 1013.4
20260506014606 52 0 0.0 1.0 0.00 0.32 0.32 63 1013.3
20260506014041 52 0 0.0 1.0 0.00 0.32 0.32 63 1013.1
20260506013543 52 0 0.0 1.0 0.00 0.32 0.32 62 1013.1
20260506013049 52 0 0.0 1.0 0.00 0.32 0.32 63 1013.1
20260506012544 52 0 0.0 1.0 0.00 0.32 0.32 63 1013.1
20260506012041 52 0 0.0 1.0 0.00 0.32 0.32 62 1013.1
20260506011613 52 0 0.0 1.0 0.00 0.32 0.32 61 1013.1
20260506011041 53 0 0.0 1.0 0.00 0.32 0.32 60 1013.1
20260506010544 53 0 0.0 1.0 0.00 0.32 0.32 58 1013.1
20260506010051 53 0 0.0 1.0 0.00 0.32 0.32 57 1012.9
20260506005540 53 0 0.0 1.0 0.00 0.32 0.32 57 1013.0
20260506005040 53 0 0.0 1.0 0.00 0.32 0.32 56 1012.9
20260506004603 53 0 0.0 2.0 0.00 0.32 0.32 55 1012.8
20260506004041 54 0 0.0 2.0 0.00 0.32 0.32 56 1012.7
20260506003542 54 28 0.0 2.0 0.00 0.32 0.32 55 1012.8
20260506003046 54 0 0.0 1.0 0.00 0.32 0.32 57 1012.7
20260506002541 54 0 0.0 2.0 0.00 0.32 0.32 58 1012.6
20260506002041 54 0 0.0 2.0 0.00 0.32 0.32 56 1012.5
20260506001556 54 337 0.0 5.0 0.00 0.32 0.32 57 1012.6
20260506001041 54 0 1.0 5.0 0.00 0.32 0.32 57 1012.4